Wind_Speed
30 29 29 27 22 22 17 13 15 14 12 12 11 11 13 9 4 10 9 15 14 12 9 6 3 3 8 14 12 9 9 10 12 14 13 13 14 12 12 11 12 13 14 15
28 29 28 26 24 26 18 16 17 20 16 12 9 12 13 9 6 7 15 12 16 22 21 25 9 11 25 13 15 16 18 21 14 9 10 10 11 13 10 11 13 15 19 18
34 32 28 27 27 27 22 19 20 24 19 15 9 8 11 13 9 8 6 5 8 13 15 19 10 18 21 26 26 23 20 21 24 19 13 12 14 14 14 12 13 15 17 17
35 29 29 27 30 30 24 21 22 24 18 16 6 3 7 14 9 6 2 5 7 17 11 7 16 29 9 19 29 29 29 26 24 23 20 18 19 18 18 23 20 16 15 13
39 28 29 30 31 30 24 24 24 23 20 21 7 5 7 15 7 6 7 7 8 8 7 16 27 16 15 23 31 30 35 31 31 32 29 24 23 26 26 24 24 21 22 20
37 30 28 34 29 28 25 27 26 23 21 22 14 7 5 12 7 13 14 8 3 12 11 18 15 25 27 25 26 27 32 33 30 28 32 34 30 31 31 32 30 28 27 25
40 33 32 31 32 29 28 30 26 23 23 23 13 10 8 10 13 14 9 7 4 5 16 16 15 21 32 32 23 23 46 37 34 36 35 38 38 39 38 37 36 37 34 33
35 33 34 33 32 30 30 28 25 24 25 23 12 10 13 12 14 8 11 9 5 11 15 12 10 17 26 22 18 38 60 40 35 36 38 39 40 41 41 40 42 45 45 43
38 37 37 31 33 30 30 30 26 24 28 20 14 11 12 17 9 14 15 9 9 4 12 26 17 16 10 14 20 42 33 46 36 33 33 37 39 43 45 43 43 45 46 52
41 37 36 36 29 27 32 32 26 26 26 16 10 12 14 19 11 25 19 11 6 13 17 20 24 14 9 7 18 25 46 55 48 41 51 42 41 42 43 46 49 50 48 49
42 40 38 35 31 36 33 31 30 25 24 10 7 11 15 18 13 17 13 9 8 14 15 24 32 29 31 31 46 53 58 61 49 54 54 44 47 48 48 47 48 51 53 54
46 44 38 38 38 39 31 30 28 23 17 11 9 13 18 20 20 22 16 19 15 10 10 16 24 24 32 32 40 54 56 52 53 55 59 54 59 60 60 58 55 56 57 59
46 44 43 39 40 38 35 31 26 21 18 16 12 13 16 21 24 27 27 24 20 18 27 28 28 33 44 50 55 55 55 62 59 67 68 70 77 77 73 71 67 58 55 56
46 47 43 39 40 38 36 33 26 22 21 15 12 14 19 25 23 25 34 37 29 30 26 32 38 45 52 55 51 58 58 63 69 72 75 79 80 75 71 65 60 55 52 53
48 46 41 39 39 38 39 35 28 26 19 16 16 18 22 29 31 31 35 36 35 40 40 38 49 54 58 59 66 67 70 76 79 79 74 72 69 65 59 53 47 46 49 53
49 47 42 39 41 41 38 38 33 28 23 14 18 22 21 22 36 41 43 41 42 43 47 49 60 59 60 67 72 77 79 82 78 72 65 59 54 51 45 44 45 45 48 51
53 47 42 44 45 45 43 36 33 23 16 20 23 23 20 28 30 39 41 50 46 47 48 57 64 65 69 74 78 78 78 74 68 60 51 44 43 43 43 45 47 49 49 50
51 46 46 48 44 43 40 40 30 23 17 27 30 26 19 27 35 36 38 48 56 53 55 57 61 67 70 68 69 70 66 58 49 45 40 38 38 39 42 43 44 46 47 49
50 50 50 46 45 42 40 35 32 29 34 34 34 32 32 30 31 33 35 37 43 45 46 51 54 54 54 58 57 51 46 41 39 40 39 38 40 41 43 44 46 47 48 49
51 52 52 46 42 38 38 36 33 27 23 29 30 34 37 30 30 33 34 31 32 40 45 51 53 54 54 54 52 48 44 40 39 39 41 42 45 48 50 52 53 53 54 54
49 48 45 44 39 37 39 35 31 33 32 31 34 35 36 35 36 36 39 33 34 41 47 56 58 56 54 54 53 50 46 42 40 40 41 45 47 49 52 53 54 54 56 57
47 46 45 42 35 35 33 33 33 28 29 34 33 34 35 33 35 37 39 42 45 47 55 60 55 53 53 53 49 45 42 41 42 43 44 47 49 50 50 52 53 52 52 52
53 45 44 39 39 39 38 39 31 30 35 33 32 39 38 36 39 37 45 48 48 54 60 58 55 54 54 49 44 40 42 43 44 46 47 48 50 50 48 48 51 53 57 61
44 39 36 33 33 36 36 32 34 38 39 35 37 37 31 35 39 44 48 50 56 58 58 57 53 52 50 45 43 43 44 46 47 49 51 49 46 47 51 56 60 63 66 68
40 37 29 27 25 30 31 33 37 34 34 28 30 36 34 37 43 48 52 59 57 58 56 54 53 52 47 44 43 45 48 49 52 52 48 47 50 55 60 63 64 63 58 56
33 30 28 29 28 26 28 33 34 35 34 29 31 32 34 40 35 42 48 51 52 56 53 51 51 48 46 45 46 48 51 53 51 48 49 55 60 64 64 59 56 55 56 54
Wind_Direction
280 278 274 275 275 274 271 268 280 268 273 297 324 340 337 353 60 101 85 61 47 58 67 16 9 9 350 358 327 336 331 2 0 340 315 298 303 296 300 304 301 305 297 298
272 266 268 271 272 273 269 259 265 272 272 281 301 319 317 336 338 117 69 55 39 8 0 355 5 34 356 352 337 302 311 316 323 331 323 311 269 284 288 305 305 296 302 297
263 265 268 267 267 267 270 267 261 269 274 277 273 270 311 315 323 340 24 331 304 244 280 300 350 346 355 2 356 336 324 312 307 305 298 302 302 308 292 290 282 281 284 293
266 265 265 264 263 264 264 266 258 264 267 255 222 264 275 284 284 331 301 228 275 288 214 239 304 324 353 344 346 329 325 315 310 297 283 282 283 276 289 294 287 279 281 287
260 266 261 260 257 265 267 264 267 269 275 275 267 253 265 270 252 253 204 258 314 159 193 261 323 341 326 320 308 306 303 306 302 291 282 276 277 279 279 280 279 273 275 275
256 255 257 256 259 262 262 262 262 271 276 276 285 293 251 256 231 239 227 223 187 159 323 294 297 300 300 293 295 296 305 308 300 282 274 277 272 269 270 271 274 273 276 275
251 251 252 255 255 259 259 260 264 267 269 274 284 302 253 227 224 225 226 231 219 25 11 313 330 284 275 294 294 320 332 318 314 311 301 286 283 274 269 267 267 269 267 263
249 251 252 251 254 255 260 262 266 265 266 272 280 263 265 235 241 232 188 174 126 26 353 313 311 314 328 298 290 311 323 315 309 308 303 296 284 277 277 276 271 268 264 264
249 245 246 251 251 252 253 258 259 262 263 271 275 269 262 262 256 211 199 177 170 171 280 287 295 353 336 346 333 352 338 316 309 313 322 309 299 291 284 281 279 272 270 267
248 248 245 247 254 261 257 260 261 256 265 271 275 272 260 253 236 192 206 173 151 238 225 260 268 281 345 277 176 284 274 295 304 306 311 308 304 301 297 293 284 281 275 269
249 247 243 242 245 244 244 251 254 259 268 280 249 234 241 252 212 205 177 223 156 168 221 249 273 281 290 258 247 265 282 292 295 298 298 295 289 289 293 292 291 282 278 275
244 243 242 236 238 248 258 259 264 263 267 264 229 220 230 238 217 202 232 216 205 128 232 257 264 271 250 260 275 276 282 286 283 278 275 279 287 287 286 289 289 284 280 277
242 243 242 239 238 245 249 250 257 271 264 248 233 232 235 237 208 205 217 228 228 236 252 255 253 253 270 264 265 268 274 275 284 280 278 280 290 288 286 288 286 282 278 276
239 240 243 239 236 242 246 251 254 256 260 257 235 238 233 222 211 223 223 227 226 236 252 255 269 271 275 275 266 270 278 282 286 288 282 282 283 284 284 284 281 278 274 274
237 237 236 236 236 239 244 246 247 253 258 253 245 241 241 229 220 222 226 233 232 248 259 274 287 287 276 275 276 282 285 292 294 292 289 288 288 287 287 285 279 276 274 268
231 229 227 227 229 232 236 243 240 245 252 233 239 236 235 233 235 230 232 236 242 253 262 269 284 282 273 274 281 291 292 292 290 289 288 287 287 289 288 284 283 280 276 272
222 222 221 224 225 229 233 232 251 268 252 260 261 234 238 236 231 230 236 232 243 255 270 283 283 280 282 289 291 293 291 291 292 290 289 286 285 286 288 288 287 285 281 275
221 217 218 223 226 229 234 244 249 256 262 267 272 268 252 246 247 250 254 246 241 252 270 276 284 285 288 289 288 289 293 294 292 289 289 286 286 287 287 286 285 285 283 280
220 217 218 221 226 230 233 235 240 248 251 257 264 275 268 258 254 261 268 268 266 274 279 286 284 286 292 295 298 300 299 298 293 290 290 289 290 291 291 290 288 286 284 282
213 220 220 221 225 231 234 238 238 238 244 254 260 263 270 280 274 259 264 264 264 266 279 297 307 310 312 308 308 308 304 302 298 296 295 295 294 292 291 290 289 288 286 283
212 221 226 225 220 224 236 238 236 231 244 256 259 263 281 283 286 284 289 294 298 302 308 313 313 314 312 308 308 308 307 304 302 299 296 294 292 292 291 290 290 290 288 286
218 216 222 225 221 226 233 241 237 245 251 252 259 267 268 273 276 284 290 301 304 308 311 313 310 311 309 307 306 306 304 303 302 301 300 298 296 294 294 293 291 290 288 287
218 217 217 220 216 222 229 232 241 237 241 246 251 258 268 265 270 277 304 303 302 305 308 308 307 307 308 306 305 305 304 305 304 302 302 300 299 299 297 296 295 293 292 290
220 223 229 235 233 230 234 238 240 243 245 252 255 269 270 274 276 295 298 297 302 306 304 306 306 307 308 306 307 306 306 306 305 305 304 304 304 303 303 301 299 297 295 293
221 221 223 232 237 244 243 244 248 255 264 267 270 270 287 294 295 295 296 298 302 303 305 309 310 309 306 307 307 308 309 309 310 310 310 309 308 307 306 305 304 302 300 298
213 219 222 226 225 235 245 249 256 256 254 266 267 273 292 300 309 310 304 303 303 304 309 312 310 309 309 309 310 311 311 314 314 313 312 312 312 312 310 308 306 305 305 304
Height
10974 10975 10976 10978 10981 10981 10984 10984 10982 10983 10983 10983 10983 10981 10977 10975 10973 10973 10973 10973 10975 10973 10969 10969 10969 10969 10970 10969 10971 10971 10970 10971 10970 10967 10965 10963 10962 10962 10961 10961 10962 10963 10963 10962
10968 10968 10970 10972 10974 10974 10981 10982 10980 10978 10980 10982 10983 10978 10975 10973 10972 10974 10974 10973 10972 10973 10973 10971 10967 10967 10970 10968 10970 10973 10972 10970 10966 10967 10966 10964 10961 10960 10959 10959 10960 10959 10958 10959
10959 10962 10966 10967 10968 10969 10973 10976 10976 10973 10975 10979 10980 10978 10972 10970 10970 10971 10973 10972 10970 10971 10967 10968 10968 10966 10964 10965 10966 10970 10970 10969 10966 10966 10962 10961 10960 10959 10956 10955 10958 10957 10956 10956
10950 10958 10959 10961 10961 10962 10967 10970 10970 10969 10971 10972 10976 10975 10970 10967 10967 10971 10971 10969 10967 10963 10967 10967 10964 10964 10963 10962 10960 10964 10968 10966 10964 10964 10962 10960 10957 10958 10956 10953 10953 10954 10954 10954
10940 10951 10953 10954 10955 10957 10961 10962 10963 10962 10963 10961 10969 10970 10968 10965 10969 10969 10969 10964 10965 10968 10969 10967 10961 10956 10955 10955 10955 10956 10957 10956 10960 10957 10956 10954 10953 10953 10952 10951 10950 10949 10948 10950
10936 10944 10948 10944 10950 10952 10955 10954 10955 10956 10956 10957 10961 10963 10963 10960 10964 10964 10964 10963 10968 10970 10966 10964 10957 10953 10952 10951 10953 10955 10953 10951 10947 10945 10944 10946 10943 10944 10944 10944 10944 10944 10943 10942
10930 10937 10939 10941 10942 10946 10947 10946 10949 10951 10950 10952 10957 10957 10957 10955 10954 10959 10960 10959 10961 10962 10961 10948 10950 10949 10950 10951 10950 10955 10949 10942 10938 10939 10937 10937 10936 10936 10935 10935 10936 10935 10936 10935
10926 10931 10931 10934 10935 10938 10939 10941 10944 10944 10944 10946 10952 10952 10949 10949 10950 10953 10953 10954 10958 10961 10960 10949 10945 10944 10953 10945 10944 10942 10944 10938 10929 10930 10926 10926 10925 10923 10924 10925 10926 10926 10926 10927
10916 10921 10923 10928 10927 10931 10932 10933 10936 10938 10937 10943 10945 10946 10945 10936 10948 10946 10946 10948 10949 10954 10955 10947 10945 10944 10946 10946 10936 10947 10919 10928 10924 10922 10919 10918 10916 10913 10912 10912 10913 10912 10912 10912
10907 10913 10918 10919 10925 10926 10925 10926 10931 10931 10932 10938 10941 10940 10939 10933 10941 10942 10941 10941 10944 10944 10943 10938 10942 10945 10946 10939 10925 10958 10959 10931 10915 10912 10911 10908 10906 10907 10904 10902 10901 10900 10900 10900
10900 10905 10909 10914 10918 10913 10916 10920 10922 10927 10928 10934 10936 10935 10934 10931 10934 10933 10935 10937 10940 10938 10938 10940 10938 10942 10946 10948 10943 10937 10923 10918 10909 10904 10904 10902 10899 10896 10893 10891 10889 10887 10885 10884
10891 10894 10901 10905 10908 10908 10915 10915 10917 10922 10925 10929 10930 10931 10929 10927 10928 10925 10927 10929 10934 10932 10936 10937 10935 10935 10934 10930 10928 10923 10915 10907 10901 10898 10893 10890 10887 10885 10880 10878 10875 10873 10871 10869
10883 10888 10891 10898 10902 10903 10906 10907 10913 10917 10920 10923 10923 10924 10924 10919 10921 10922 10919 10922 10921 10918 10916 10921 10924 10923 10925 10926 10920 10911 10907 10901 10895 10890 10881 10874 10870 10867 10865 10862 10859 10857 10855 10853
10873 10877 10885 10892 10894 10898 10900 10903 10907 10911 10913 10916 10919 10919 10918 10915 10916 10913 10910 10912 10912 10913 10907 10908 10910 10909 10910 10910 10906 10902 10895 10889 10882 10874 10865 10858 10852 10848 10845 10843 10840 10839 10839 10837
10864 10870 10878 10883 10886 10889 10890 10895 10900 10904 10907 10910 10912 10913 10912 10912 10914 10912 10907 10904 10905 10904 10903 10900 10899 10896 10893 10892 10889 10883 10876 10870 10860 10852 10843 10836 10831 10827 10826 10824 10823 10822 10822 10822
10852 10860 10869 10874 10876 10879 10881 10882 10893 10899 10902 10903 10905 10906 10906 10913 10912 10908 10904 10901 10897 10895 10893 10893 10887 10884 10882 10879 10873 10865 10857 10850 10842 10835 10828 10822 10817 10814 10812 10809 10807 10806 10805 10806
10837 10851 10860 10860 10864 10869 10873 10877 10888 10899 10898 10896 10896 10898 10897 10899 10903 10902 10900 10898 10895 10892 10889 10882 10875 10870 10867 10861 10854 10845 10839 10832 10824 10817 10813 10809 10806 10802 10799 10796 10792 10790 10789 10788
10831 10841 10846 10848 10857 10863 10869 10872 10886 10887 10889 10887 10884 10889 10888 10889 10890 10892 10891 10889 10890 10887 10881 10874 10869 10862 10856 10849 10840 10833 10824 10816 10809 10804 10801 10798 10795 10792 10788 10785 10781 10777 10774 10772
10823 10830 10836 10843 10849 10855 10861 10870 10879 10881 10876 10876 10881 10881 10879 10878 10879 10879 10878 10877 10878 10875 10870 10867 10860 10854 10847 10834 10824 10817 10810 10804 10798 10794 10790 10786 10782 10779 10776 10773 10770 10766 10762 10758
10810 10820 10826 10836 10842 10849 10854 10860 10866 10868 10874 10871 10867 10866 10865 10871 10872 10871 10868 10866 10866 10864 10861 10851 10840 10833 10825 10815 10809 10804 10796 10792 10786 10783 10778 10773 10770 10766 10763 10759 10755 10751 10747 10743
10803 10813 10823 10828 10839 10844 10844 10851 10858 10864 10867 10865 10863 10861 10856 10855 10855 10855 10854 10853 10852 10850 10843 10835 10826 10819 10812 10803 10798 10792 10785 10781 10777 10773 10768 10763 10759 10755 10750 10744 10739 10735 10730 10726
10801 10805 10812 10823 10834 10839 10838 10839 10849 10855 10857 10857 10856 10855 10853 10852 10849 10848 10846 10845 10842 10837 10833 10825 10818 10812 10805 10797 10790 10784 10778 10773 10768 10763 10758 10753 10748 10742 10736 10730 10725 10721 10714 10708
10785 10799 10806 10815 10824 10827 10830 10831 10841 10847 10845 10849 10849 10848 10846 10844 10843 10843 10840 10837 10835 10831 10825 10817 10810 10804 10795 10788 10780 10775 10768 10763 10758 10753 10748 10741 10734 10728 10722 10716 10710 10705 10699 10691
10791 10800 10807 10814 10819 10822 10824 10831 10832 10831 10835 10841 10842 10841 10841 10840 10839 10833 10830 10828 10825 10821 10815 10807 10799 10791 10783 10776 10769 10764 10759 10753 10747 10740 10734 10727 10720 10714 10708 10701 10692 10684 10677 10667
10785 10793 10801 10807 10814 10815 10819 10820 10819 10823 10825 10828 10828 10828 10825 10824 10823 10821 10820 10815 10812 10807 10800 10793 10784 10778 10772 10766 10759 10753 10747 10741 10733 10726 10718 10712 10707 10700 10691 10683 10671 10660 10653 10646
10779 10788 10794 10798 10803 10807 10811 10812 10814 10816 10818 10820 10819 10819 10819 10817 10815 10812 10808 10803 10798 10792 10786 10780 10773 10767 10760 10754 10748 10742 10735 10728 10720 10713 10706 10698 10689 10679 10669 10660 10653 10644 10633 10625